When you browse on this site, cookies collect data to enhance your experience and personalize the content and advertising you see.
Visit our Privacy Policy to learn more. By continuing to use the site, you agree to this use of cookies and data.
  • In Hungary
  • List of Countries
  • For 7 days
  • Water Temperature
  • Satellite Maps
  • Weather Map
  • News
  • Weather Widgets
  • user-avatar
    Login

    Hourly Weather Mryaushlinskiy

    Today, 20 November, Tuesday

    Time Temperature Precipitation Wind Pressure Humidity
    00:00 -4°C° 0 mm 1 mps 742 mmHg 62%
    01:00 -6°C° 0 mm 1 mps 742 mmHg 62%
    02:00 -6°C° 0 mm 1 mps 742 mmHg 63%
    03:00 -6°C° 0 mm 1 mps 742 mmHg 63%
    04:00 -6°C° 0 mm 1 mps 741 mmHg 63%
    05:00 -6°C° 0 mm 1 mps 741 mmHg 65%
    06:00 -6°C° 0 mm 1 mps 741 mmHg 66%
    07:00 -6°C° 0 mm 1 mps 741 mmHg 67%
    08:00 -4°C° 0 mm 1 mps 741 mmHg 67%
    09:00 -4°C° 0 mm 1 mps 741 mmHg 67%
    10:00 -3°C° 0 mm 1 mps 741 mmHg 68%
    11:00 -3°C° 0 mm 1 mps 741 mmHg 69%
    12:00 -2°C° 0 mm 1 mps 741 mmHg 71%
    13:00 -2°C° 0 mm 1 mps 740 mmHg 73%
    14:00 -2°C° 0 mm 1 mps 740 mmHg 77%
    15:00 -2°C° 0 mm 1 mps 740 mmHg 80%
    16:00 -3°C° 0 mm 1 mps 740 mmHg 84%
    17:00 -3°C° 0 mm 1 mps 740 mmHg 86%
    18:00 -3°C° 0 mm 1 mps 739 mmHg 88%
    19:00 -5°C° 0 mm 2 mps 739 mmHg 90%
    20:00 -5°C° 0 mm 2 mps 739 mmHg 91%
    21:00 -5°C° 0 mm 2 mps 739 mmHg 92%
    22:00 -5°C° 0 mm 2 mps 738 mmHg 93%
    23:00 -5°C° 0.1 mm 2 mps 738 mmHg 94%

    Tomorrow, 21 November, Wednesday

    Time Temperature Precipitation Wind Pressure Humidity
    00:00 -5°C° 0.1 mm 2 mps 738 mmHg 94%
    01:00 -5°C° 0.1 mm 2 mps 737 mmHg 95%
    02:00 -5°C° 0 mm 2 mps 737 mmHg 95%
    03:00 -5°C° 0 mm 2 mps 736 mmHg 94%
    04:00 -5°C° 0 mm 2 mps 736 mmHg 94%
    05:00 -5°C° 0.1 mm 2 mps 736 mmHg 93%
    06:00 -5°C° 0.1 mm 2 mps 735 mmHg 91%
    07:00 -6°C° 0.1 mm 3 mps 734 mmHg 90%
    08:00 -6°C° 0 mm 3 mps 734 mmHg 88%
    09:00 -6°C° 0 mm 3 mps 734 mmHg 85%
    10:00 -6°C° 0 mm 3 mps 733 mmHg 82%
    11:00 -5°C° 0.1 mm 4 mps 732 mmHg 81%
    12:00 -5°C° 0.1 mm 4 mps 732 mmHg 81%
    13:00 -5°C° 0.1 mm 4 mps 731 mmHg 80%
    14:00 -5°C° 0.1 mm 4 mps 730 mmHg 82%
    15:00 -5°C° 0.1 mm 4 mps 729 mmHg 84%
    16:00 -5°C° 0.1 mm 4 mps 729 mmHg 86%
    17:00 -6°C° 0.3 mm 5 mps 728 mmHg 87%
    18:00 -6°C° 0.3 mm 5 mps 728 mmHg 89%
    19:00 -6°C° 0.3 mm 5 mps 727 mmHg 90%
    20:00 -6°C° 0.3 mm 5 mps 726 mmHg 90%
    21:00 -7°C° 0.3 mm 5 mps 726 mmHg 90%
    22:00 -7°C° 0.3 mm 5 mps 725 mmHg 90%
    23:00 -7°C° 0.2 mm 5 mps 725 mmHg 90%

    Day after tomorrow, 22 November, Thursday

    Time Temperature Precipitation Wind Pressure Humidity
    00:00 -7°C° 0.2 mm 5 mps 725 mmHg 89%
    01:00 -7°C° 0.2 mm 5 mps 724 mmHg 89%
    02:00 -7°C° 0.1 mm 5 mps 724 mmHg 88%
    03:00 -8°C° 0.1 mm 5 mps 724 mmHg 88%
    04:00 -8°C° 0.1 mm 5 mps 724 mmHg 87%
    05:00 -8°C° 0.1 mm 5 mps 725 mmHg 87%
    06:00 -10°C° 0.1 mm 5 mps 725 mmHg 86%
    07:00 -10°C° 0.1 mm 5 mps 725 mmHg 86%
    08:00 -10°C° 0 mm 5 mps 725 mmHg 83%
    09:00 -11°C° 0 mm 5 mps 726 mmHg 81%
    10:00 -11°C° 0 mm 5 mps 726 mmHg 79%
    11:00 -11°C° 0 mm 5 mps 726 mmHg 78%
    12:00 -10°C° 0 mm 5 mps 727 mmHg 77%
    13:00 -9°C° 0 mm 4 mps 727 mmHg 76%
    14:00 -10°C° 0.1 mm 4 mps 727 mmHg 78%
    15:00 -10°C° 0.1 mm 4 mps 727 mmHg 79%
    16:00 -10°C° 0.1 mm 4 mps 727 mmHg 80%
    17:00 -11°C° 0 mm 4 mps 727 mmHg 83%
    18:00 -11°C° 0 mm 4 mps 727 mmHg 86%
    19:00 -10°C° 0 mm 3 mps 727 mmHg 89%
    20:00 -11°C° 0.2 mm 4 mps 727 mmHg 89%
    21:00 -12°C° 0.2 mm 5 mps 726 mmHg 89%
    22:00 -11°C° 0.2 mm 6 mps 726 mmHg 89%
    23:00 -12°C° 0.4 mm 7 mps 726 mmHg 89%

    23 November, Friday

    Time Temperature Precipitation Wind Pressure Humidity
    00:00 -12°C° 0.4 mm 7 mps 725 mmHg 89%
    01:00 -12°C° 0.4 mm 7 mps 725 mmHg 89%
    02:00 -12°C° 0.4 mm 7 mps 724 mmHg 89%
    03:00 -12°C° 0.4 mm 7 mps 724 mmHg 89%
    04:00 -12°C° 0.4 mm 7 mps 724 mmHg 90%
    05:00 -11°C° 0.3 mm 6 mps 724 mmHg 90%
    06:00 -11°C° 0.3 mm 6 mps 724 mmHg 91%
    07:00 -11°C° 0.3 mm 5 mps 723 mmHg 91%
    08:00 -10°C° 0.2 mm 5 mps 724 mmHg 91%
    09:00 -9°C° 0.2 mm 4 mps 724 mmHg 91%
    10:00 -9°C° 0.2 mm 4 mps 724 mmHg 91%
    11:00 -9°C° 0.3 mm 4 mps 724 mmHg 91%
    12:00 -9°C° 0.3 mm 4 mps 725 mmHg 90%
    13:00 -8°C° 0.3 mm 3 mps 725 mmHg 90%
    14:00 -10°C° 0.2 mm 4 mps 726 mmHg 88%
    15:00 -11°C° 0.2 mm 5 mps 726 mmHg 87%
    16:00 -12°C° 0.2 mm 5 mps 727 mmHg 85%
    17:00 -14°C° 0.1 mm 6 mps 727 mmHg 80%
    18:00 -15°C° 0.1 mm 6 mps 728 mmHg 76%
    19:00 -17°C° 0.1 mm 7 mps 729 mmHg 71%
    20:00 -17°C° 0 mm 6 mps 730 mmHg 76%
    21:00 -18°C° 0 mm 5 mps 731 mmHg 81%
    22:00 -19°C° 0 mm 5 mps 732 mmHg 86%
    23:00 -19°C° 0 mm 4 mps 733 mmHg 88%

    24 November, Saturday

    Time Temperature Precipitation Wind Pressure Humidity
    00:00 -19°C° 0 mm 4 mps 733 mmHg 90%
    01:00 -19°C° 0 mm 3 mps 734 mmHg 92%
    02:00 -18°C° 0 mm 3 mps 735 mmHg 93%
    03:00 -18°C° 0 mm 3 mps 735 mmHg 94%
    04:00 -18°C° 0 mm 3 mps 736 mmHg 95%
    05:00 -17°C° 0 mm 3 mps 736 mmHg 94%
    06:00 -17°C° 0 mm 3 mps 736 mmHg 93%
    07:00 -17°C° 0 mm 4 mps 737 mmHg 93%
    08:00 -16°C° 0 mm 4 mps 737 mmHg 92%
    09:00 -16°C° 0 mm 4 mps 738 mmHg 91%
    10:00 -15°C° 0 mm 4 mps 738 mmHg 90%
    11:00 -14°C° 0 mm 5 mps 738 mmHg 89%
    12:00 -14°C° 0 mm 5 mps 738 mmHg 87%
    13:00 -13°C° 0 mm 5 mps 738 mmHg 85%
    14:00 -14°C° 0 mm 6 mps 738 mmHg 85%
    15:00 -14°C° 0 mm 6 mps 738 mmHg 84%
    16:00 -15°C° 0 mm 6 mps 738 mmHg 84%
    17:00 -15°C° 0 mm 7 mps 738 mmHg 85%
    18:00 -15°C° 0 mm 7 mps 738 mmHg 86%
    19:00 -15°C° 0 mm 8 mps 738 mmHg 87%
    20:00 -15°C° 0.1 mm 8 mps 737 mmHg 86%
    21:00 -15°C° 0.1 mm 8 mps 737 mmHg 85%
    22:00 -13°C° 0.1 mm 8 mps 736 mmHg 84%
    23:00 -13°C° 0.1 mm 8 mps 736 mmHg 84%

    25 November, Sunday

    Time Temperature Precipitation Wind Pressure Humidity
    00:00 -13°C° 0.1 mm 8 mps 736 mmHg 84%
    01:00 -13°C° 0.1 mm 8 mps 736 mmHg 84%
    02:00 -12°C° 0.1 mm 8 mps 736 mmHg 85%
    03:00 -12°C° 0.1 mm 7 mps 736 mmHg 86%
    04:00 -12°C° 0.1 mm 7 mps 736 mmHg 87%
    05:00 -12°C° 0.1 mm 7 mps 736 mmHg 88%
    06:00 -12°C° 0.1 mm 7 mps 736 mmHg 89%
    07:00 -11°C° 0.1 mm 6 mps 736 mmHg 90%
    08:00 -11°C° 0.1 mm 6 mps 737 mmHg 90%
    09:00 -10°C° 0.1 mm 6 mps 737 mmHg 90%
    10:00 -10°C° 0.1 mm 6 mps 737 mmHg 91%
    11:00 -10°C° 0.1 mm 6 mps 737 mmHg 90%
    12:00 -10°C° 0.1 mm 5 mps 738 mmHg 90%
    13:00 -8°C° 0.1 mm 5 mps 738 mmHg 90%
    14:00 -8°C° 0.1 mm 5 mps 738 mmHg 91%
    15:00 -9°C° 0.1 mm 4 mps 738 mmHg 91%
    16:00 -9°C° 0.1 mm 4 mps 738 mmHg 92%
    17:00 -9°C° 0.1 mm 4 mps 738 mmHg 92%
    18:00 -9°C° 0.1 mm 4 mps 738 mmHg 93%
    19:00 -9°C° 0.1 mm 4 mps 738 mmHg 93%
    20:00 -10°C° 0.1 mm 4 mps 738 mmHg 93%
    21:00 -9°C° 0.1 mm 3 mps 738 mmHg 94%
    22:00 -9°C° 0.1 mm 3 mps 737 mmHg 94%
    23:00 -9°C° 0.1 mm 3 mps 737 mmHg 94%
    Show more